Station Historical Data
Daily Summary for August 18, 2017 Units:  Metric    English   Both
« Previous Day
Next Day »
Daily Weekly Monthly Yearly Custom
  High: Low: Average:
Temperature: 27.8 °C 22.3 °C 24.6 °C
Dew Point: 21.8 °C 16.8 °C 20.1 °C
Humidity: 91% 60% 76%
Wind Speed: 27.4km/h 1.6km/h 10.3km/h
Wind Gust: 41.8km/h - -
Wind- - WSW
Pressure: 1009 hPa 1005.6 hPa -
Precipitation: 0 mm    
Historical Graphs
 
 
Tabular Data for August 18, 2017
Time Temperature Dew Point Pressure Wind Wind Speed Wind Gust Humidity Rainfall Rate (Hourly)
00:04 22.6 °C 21.1 °C 1006.7 hPa SSW 3.2 km/h 11.3 km/h 91% 0 mm
00:09 22.6 °C 21.1 °C 1006.7 hPa SSE 3.2 km/h 8 km/h 91% 0 mm
00:14 22.6 °C 21.1 °C 1006.7 hPa SSW 4.8 km/h 9.7 km/h 91% 0 mm
00:19 22.7 °C 21.1 °C 1006.3 hPa SW 6.4 km/h 12.9 km/h 91% 0 mm
00:24 22.7 °C 21.1 °C 1006.3 hPa SSW 3.2 km/h 12.9 km/h 91% 0 mm
00:29 22.8 °C 21.2 °C 1006.3 hPa SSW 3.2 km/h 12.9 km/h 91% 0 mm
00:34 22.8 °C 21.1 °C 1006.3 hPa SSW 4.8 km/h 12.9 km/h 90% 0 mm
00:39 22.8 °C 21.1 °C 1006.3 hPa SSW 4.8 km/h 16.1 km/h 90% 0 mm
00:44 22.9 °C 21.2 °C 1006.3 hPa SSW 6.4 km/h 17.7 km/h 90% 0 mm
00:49 22.9 °C 21.2 °C 1006 hPa SSW 4.8 km/h 12.9 km/h 90% 0 mm
00:54 23 °C 21.3 °C 1006.3 hPa SSW 6.4 km/h 12.9 km/h 90% 0 mm
00:59 23.1 °C 21.3 °C 1006 hPa SSW 4.8 km/h 14.5 km/h 90% 0 mm
01:04 23.1 °C 21.2 °C 1006 hPa South 1.6 km/h 14.5 km/h 89% 0 mm
01:09 23.2 °C 21.3 °C 1006 hPa South 4.8 km/h 14.5 km/h 89% 0 mm
01:14 23.2 °C 21.3 °C 1006 hPa West 4.8 km/h 11.3 km/h 89% 0 mm
01:19 23.2 °C 21.3 °C 1006 hPa SW 6.4 km/h 14.5 km/h 89% 0 mm
01:24 23.2 °C 21.3 °C 1006 hPa SW 6.4 km/h 14.5 km/h 89% 0 mm
01:29 23.3 °C 21.4 °C 1006 hPa SW 4.8 km/h 14.5 km/h 89% 0 mm
01:34 23.3 °C 21.2 °C 1006 hPa SW 6.4 km/h 17.7 km/h 88% 0 mm
01:39 23.4 °C 21.3 °C 1006 hPa SW 3.2 km/h 11.3 km/h 88% 0 mm
01:44 23.4 °C 21.3 °C 1006 hPa South 4.8 km/h 9.7 km/h 88% 0 mm
01:49 23.5 °C 21.4 °C 1005.6 hPa SW 6.4 km/h 9.7 km/h 88% 0 mm
01:54 23.4 °C 21.3 °C 1005.6 hPa SW 4.8 km/h 14.5 km/h 88% 0 mm
01:59 23.4 °C 21.3 °C 1005.6 hPa SW 6.4 km/h 14.5 km/h 88% 0 mm
02:04 23.4 °C 21.3 °C 1005.6 hPa SW 4.8 km/h 12.9 km/h 88% 0 mm
02:09 23.5 °C 21.4 °C 1005.6 hPa SSW 6.4 km/h 12.9 km/h 88% 0 mm
02:14 23.5 °C 21.4 °C 1005.6 hPa SW 6.4 km/h 12.9 km/h 88% 0 mm
02:19 23.5 °C 21.4 °C 1005.6 hPa WSW 8 km/h 16.1 km/h 88% 0 mm
02:24 23.6 °C 21.4 °C 1005.6 hPa SW 8 km/h 16.1 km/h 88% 0 mm
02:29 23.6 °C 21.4 °C 1005.6 hPa SW 6.4 km/h 12.9 km/h 88% 0 mm
02:34 23.6 °C 21.5 °C 1005.6 hPa South 8 km/h 14.5 km/h 88% 0 mm
02:39 23.7 °C 21.6 °C 1005.6 hPa SW 4.8 km/h 9.7 km/h 88% 0 mm
02:44 23.7 °C 21.6 °C 1006 hPa SW 9.7 km/h 14.5 km/h 88% 0 mm
02:49 23.7 °C 21.6 °C 1006 hPa WSW 4.8 km/h 16.1 km/h 88% 0 mm
02:54 23.8 °C 21.7 °C 1005.6 hPa SW 6.4 km/h 16.1 km/h 88% 0 mm
02:59 23.8 °C 21.7 °C 1006 hPa SW 8 km/h 19.3 km/h 88% 0 mm
03:04 23.8 °C 21.6 °C 1005.6 hPa SW 9.7 km/h 19.3 km/h 87% 0 mm
03:09 23.9 °C 21.6 °C 1005.6 hPa SW 9.7 km/h 22.5 km/h 87% 0 mm
03:14 23.9 °C 21.6 °C 1005.6 hPa WSW 6.4 km/h 16.1 km/h 87% 0 mm
03:19 23.9 °C 21.6 °C 1005.6 hPa SW 8 km/h 12.9 km/h 87% 0 mm
03:24 23.9 °C 21.6 °C 1005.6 hPa SW 6.4 km/h 12.9 km/h 87% 0 mm
03:29 23.9 °C 21.6 °C 1005.6 hPa SW 8 km/h 14.5 km/h 87% 0 mm
03:34 23.9 °C 21.6 °C 1005.6 hPa West 9.7 km/h 17.7 km/h 87% 0 mm
03:39 23.9 °C 21.6 °C 1005.6 hPa WSW 4.8 km/h 14.5 km/h 87% 0 mm
03:44 23.9 °C 21.6 °C 1005.6 hPa SW 6.4 km/h 17.7 km/h 87% 0 mm
03:49 23.9 °C 21.7 °C 1005.6 hPa WSW 4.8 km/h 16.1 km/h 87% 0 mm
03:54 24 °C 21.7 °C 1005.6 hPa SW 8 km/h 24.1 km/h 87% 0 mm
03:59 24.1 °C 21.8 °C 1005.6 hPa SW 9.7 km/h 24.1 km/h 87% 0 mm
04:04 24.1 °C 21.8 °C 1005.6 hPa WSW 9.7 km/h 22.5 km/h 87% 0 mm
04:09 24.1 °C 21.6 °C 1005.6 hPa WSW 9.7 km/h 20.9 km/h 86% 0 mm
04:14 24.1 °C 21.6 °C 1005.6 hPa WSW 8 km/h 27.4 km/h 86% 0 mm
04:19 24.1 °C 21.6 °C 1005.6 hPa WNW 9.7 km/h 29 km/h 86% 0 mm
04:24 24.1 °C 21.6 °C 1005.6 hPa WSW 9.7 km/h 29 km/h 86% 0 mm
04:29 24.1 °C 21.6 °C 1005.6 hPa WSW 11.3 km/h 24.1 km/h 86% 0 mm
04:34 24.1 °C 21.4 °C 1005.6 hPa West 11.3 km/h 22.5 km/h 85% 0 mm
04:39 24 °C 21.3 °C 1005.6 hPa WSW 6.4 km/h 20.9 km/h 85% 0 mm
04:44 23.9 °C 21.3 °C 1005.6 hPa South 9.7 km/h 20.9 km/h 85% 0 mm
04:49 23.9 °C 21.3 °C 1005.6 hPa South 11.3 km/h 20.9 km/h 85% 0 mm
04:54 23.9 °C 21.3 °C 1005.6 hPa SW 8 km/h 20.9 km/h 85% 0 mm
04:59 23.9 °C 21.3 °C 1005.6 hPa SW 9.7 km/h 22.5 km/h 85% 0 mm
05:04 23.9 °C 21.3 °C 1005.6 hPa WSW 8 km/h 24.1 km/h 85% 0 mm
05:09 23.9 °C 21.3 °C 1005.6 hPa WSW 9.7 km/h 27.4 km/h 85% 0 mm
05:14 24 °C 21.1 °C 1005.6 hPa WSW 19.3 km/h 24.1 km/h 84% 0 mm
05:19 24.1 °C 21.2 °C 1005.6 hPa SW 8 km/h 22.5 km/h 84% 0 mm
05:24 24.1 °C 21.2 °C 1005.6 hPa SW 11.3 km/h 29 km/h 84% 0 mm
05:29 24.1 °C 21.2 °C 1005.6 hPa SW 11.3 km/h 29 km/h 84% 0 mm
05:34 24 °C 21.1 °C 1005.6 hPa SW 9.7 km/h 20.9 km/h 84% 0 mm
05:39 24 °C 21.1 °C 1005.6 hPa WSW 16.1 km/h 22.5 km/h 84% 0 mm
05:44 23.9 °C 21.1 °C 1006 hPa SW 8 km/h 19.3 km/h 84% 0 mm
05:49 23.9 °C 21 °C 1006 hPa West 8 km/h 19.3 km/h 84% 0 mm
05:54 23.8 °C 20.9 °C 1006 hPa West 6.4 km/h 22.5 km/h 84% 0 mm
05:59 23.8 °C 21.2 °C 1006 hPa WSW 11.3 km/h 25.7 km/h 85% 0 mm
06:04 23.8 °C 21.1 °C 1006.3 hPa SW 11.3 km/h 25.7 km/h 85% 0 mm
06:09 23.8 °C 21.1 °C 1006 hPa SW 16.1 km/h 22.5 km/h 85% 0 mm
06:14 23.7 °C 21.1 °C 1006.3 hPa WSW 9.7 km/h 30.6 km/h 85% 0 mm
06:19 23.7 °C 21.1 °C 1006.3 hPa WSW 14.5 km/h 16.1 km/h 85% 0 mm
06:24 23.7 °C 21 °C 1006.3 hPa SW 9.7 km/h 24.1 km/h 85% 0 mm
06:29 23.7 °C 21 °C 1006.3 hPa WSW 11.3 km/h 24.1 km/h 85% 0 mm
06:34 23.7 °C 21 °C 1006.3 hPa WSW 9.7 km/h 25.7 km/h 85% 0 mm
06:39 23.7 °C 21 °C 1006.3 hPa WSW 9.7 km/h 25.7 km/h 85% 0 mm
06:44 23.7 °C 21 °C 1006.3 hPa SW 9.7 km/h 22.5 km/h 85% 0 mm
06:49 23.7 °C 21 °C 1006.3 hPa SW 8 km/h 19.3 km/h 85% 0 mm
06:54 23.6 °C 21.1 °C 1006.3 hPa SW 8 km/h 20.9 km/h 86% 0 mm
06:59 23.6 °C 20.9 °C 1006.3 hPa SW 9.7 km/h 20.9 km/h 85% 0 mm
07:04 23.5 °C 20.8 °C 1006.3 hPa WSW 12.9 km/h 17.7 km/h 85% 0 mm
07:09 23.3 °C 20.7 °C 1006.7 hPa SW 9.7 km/h 16.1 km/h 85% 0 mm
07:14 23.3 °C 20.8 °C 1006.3 hPa SW 4.8 km/h 16.1 km/h 86% 0 mm
07:19 23.3 °C 20.8 °C 1006.3 hPa WSW 4.8 km/h 16.1 km/h 86% 0 mm
07:24 23.3 °C 20.7 °C 1006.3 hPa West 9.7 km/h 19.3 km/h 85% 0 mm
07:29 23.4 °C 20.8 °C 1006.3 hPa WSW 6.4 km/h 12.9 km/h 85% 0 mm
07:34 23.4 °C 20.8 °C 1006.3 hPa SW 8 km/h 19.3 km/h 85% 0 mm
07:39 23.6 °C 20.7 °C 1006.3 hPa SW 8 km/h 19.3 km/h 84% 0 mm
07:44 23.7 °C 20.8 °C 1006.3 hPa SW 8 km/h 19.3 km/h 84% 0 mm
07:49 23.7 °C 20.8 °C 1006.7 hPa SW 8 km/h 19.3 km/h 84% 0 mm
07:54 23.8 °C 20.8 °C 1006.7 hPa SW 8 km/h 16.1 km/h 83% 0 mm
07:59 23.9 °C 20.6 °C 1006.7 hPa SW 9.7 km/h 19.3 km/h 82% 0 mm
08:04 24 °C 20.7 °C 1006.3 hPa SSE 9.7 km/h 22.5 km/h 82% 0 mm
08:09 24.1 °C 20.7 °C 1006.3 hPa SW 11.3 km/h 19.3 km/h 81% 0 mm
08:14 24.2 °C 20.8 °C 1006.3 hPa SW 11.3 km/h 19.3 km/h 81% 0 mm
08:19 24.3 °C 20.7 °C 1006.3 hPa SW 6.4 km/h 19.3 km/h 80% 0 mm
08:24 24.5 °C 20.8 °C 1006.3 hPa SW 8 km/h 19.3 km/h 80% 0 mm
08:29 24.6 °C 20.9 °C 1006.3 hPa SSW 9.7 km/h 12.9 km/h 80% 0 mm
08:34 24.6 °C 20.7 °C 1006.3 hPa SW 8 km/h 17.7 km/h 79% 0 mm
08:39 24.8 °C 20.9 °C 1006.3 hPa SW 9.7 km/h 20.9 km/h 79% 0 mm
08:44 24.9 °C 20.6 °C 1006.3 hPa SW 8 km/h 20.9 km/h 77% 0 mm
08:49 25 °C 20.7 °C 1006.3 hPa SSW 8 km/h 22.5 km/h 77% 0 mm
08:54 25.1 °C 20.7 °C 1006.3 hPa SSW 16.1 km/h 22.5 km/h 77% 0 mm
08:59 25.2 °C 20.7 °C 1006.3 hPa WSW 11.3 km/h 17.7 km/h 76% 0 mm
09:04 25.4 °C 20.6 °C 1006.3 hPa WSW 9.7 km/h 24.1 km/h 75% 0 mm
09:09 25.4 °C 20.7 °C 1006.3 hPa SW 9.7 km/h 24.1 km/h 75% 0 mm
09:14 25.6 °C 20.6 °C 1006.3 hPa SW 9.7 km/h 17.7 km/h 74% 0 mm
09:19 25.6 °C 20.4 °C 1006.3 hPa SW 4.8 km/h 19.3 km/h 73% 0 mm
09:24 25.8 °C 20.6 °C 1006.3 hPa SSW 6.4 km/h 19.3 km/h 73% 0 mm
09:29 26.1 °C 20.6 °C 1006.3 hPa SW 9.7 km/h 16.1 km/h 72% 0 mm
09:34 26.1 °C 20.4 °C 1006.3 hPa SW 6.4 km/h 24.1 km/h 71% 0 mm
09:39 26.1 °C 20.4 °C 1006.3 hPa WSW 11.3 km/h 24.1 km/h 71% 0 mm
09:44 26.1 °C 20.4 °C 1006.7 hPa SW 11.3 km/h 22.5 km/h 71% 0 mm
09:49 26.2 °C 20.1 °C 1006.7 hPa WSW 11.3 km/h 22.5 km/h 69% 0 mm
09:54 26.2 °C 20.1 °C 1006.3 hPa WSW 16.1 km/h 24.1 km/h 69% 0 mm
09:59 26.3 °C 20.4 °C 1006.3 hPa SW 16.1 km/h 19.3 km/h 70% 0 mm
10:04 26.2 °C 20.1 °C 1006.3 hPa SW 11.3 km/h 29 km/h 69% 0 mm
10:09 26.3 °C 20.2 °C 1006.3 hPa SW 11.3 km/h 29 km/h 69% 0 mm
10:14 26.3 °C 19.9 °C 1006.3 hPa SW 12.9 km/h 25.7 km/h 68% 0 mm
10:19 26.3 °C 19.9 °C 1006.3 hPa SW 14.5 km/h 27.4 km/h 68% 0 mm
10:24 26.4 °C 20.1 °C 1006.3 hPa SW 14.5 km/h 27.4 km/h 68% 0 mm
10:29 26.5 °C 20.1 °C 1006.3 hPa SW 11.3 km/h 25.7 km/h 68% 0 mm
10:34 26.6 °C 20.2 °C 1006.3 hPa South 11.3 km/h 30.6 km/h 68% 0 mm
10:39 26.7 °C 20.3 °C 1006.3 hPa West 12.9 km/h 25.7 km/h 68% 0 mm
10:44 26.8 °C 20.4 °C 1006.3 hPa WSW 16.1 km/h 22.5 km/h 68% 0 mm
10:49 27.1 °C 20.4 °C 1006.3 hPa WSW 12.9 km/h 19.3 km/h 67% 0 mm
10:54 27.1 °C 20.7 °C 1006.3 hPa SW 9.7 km/h 27.4 km/h 68% 0 mm
10:59 27 °C 20.6 °C 1006.3 hPa West 6.4 km/h 24.1 km/h 68% 0 mm
11:04 27.1 °C 20.4 °C 1006.3 hPa West 27.4 km/h 27.4 km/h 67% 0 mm
11:09 26.9 °C 20.3 °C 1006.3 hPa WSW 11.3 km/h 27.4 km/h 67% 0 mm
11:14 26.7 °C 20.5 °C 1006.3 hPa WSW 11.3 km/h 27.4 km/h 69% 0 mm
11:19 26.6 °C 20.2 °C 1006.3 hPa WSW 14.5 km/h 27.4 km/h 68% 0 mm
11:24 27.2 °C 20.7 °C 1006.3 hPa SW 12.9 km/h 27.4 km/h 68% 0 mm
11:29 27.3 °C 20.4 °C 1006.3 hPa SW 16.1 km/h 25.7 km/h 66% 0 mm
11:34 27.3 °C 20.6 °C 1006.3 hPa WSW 8 km/h 29 km/h 67% 0 mm
11:39 27.3 °C 20.4 °C 1006 hPa WSW 12.9 km/h 29 km/h 66% 0 mm
11:44 27.7 °C 20.6 °C 1006.3 hPa WSW 12.9 km/h 24.1 km/h 65% 0 mm
11:49 27.6 °C 20.4 °C 1006 hPa SW 12.9 km/h 27.4 km/h 65% 0 mm
11:54 27.5 °C 20.3 °C 1006 hPa SW 16.1 km/h 30.6 km/h 65% 0 mm
11:59 27.7 °C 20.6 °C 1006 hPa South 16.1 km/h 30.6 km/h 65% 0 mm
12:04 27.6 °C 20.2 °C 1006 hPa SE 12.9 km/h 35.4 km/h 64% 0 mm
12:09 27.7 °C 20.5 °C 1006 hPa SW 14.5 km/h 35.4 km/h 65% 0 mm
12:14 27.7 °C 20.8 °C 1006 hPa WSW 16.1 km/h 27.4 km/h 66% 0 mm
12:19 27.8 °C 20.8 °C 1006.3 hPa SW 22.5 km/h 25.7 km/h 66% 0 mm
12:24 27.8 °C 21.4 °C 1006.3 hPa WSW 11.3 km/h 27.4 km/h 68% 0 mm
12:29 27.4 °C 21.2 °C 1006 hPa WSW 14.5 km/h 33.8 km/h 69% 0 mm
12:34 26.9 °C 21.2 °C 1006 hPa WSW 6.4 km/h 33.8 km/h 71% 0 mm
12:39 26.6 °C 21.2 °C 1006 hPa WSW 16.1 km/h 33.8 km/h 72% 0 mm
12:44 26.5 °C 20.6 °C 1006 hPa WSW 16.1 km/h 32.2 km/h 70% 0 mm
12:49 26.7 °C 20.9 °C 1006 hPa WSW 16.1 km/h 35.4 km/h 71% 0 mm
12:54 26.6 °C 20.9 °C 1006 hPa WSW 16.1 km/h 35.4 km/h 71% 0 mm
12:59 26.7 °C 20.6 °C 1006 hPa WSW 16.1 km/h 29 km/h 69% 0 mm
13:04 26.6 °C 20.9 °C 1006 hPa WSW 16.1 km/h 29 km/h 71% 0 mm
13:09 26.8 °C 20.2 °C 1006 hPa SW 16.1 km/h 27.4 km/h 67% 0 mm
13:14 26.9 °C 20.6 °C 1006 hPa SW 11.3 km/h 25.7 km/h 68% 0 mm
13:19 27 °C 20.3 °C 1006 hPa West 19.3 km/h 29 km/h 67% 0 mm
13:24 26.7 °C 19.8 °C 1006 hPa WSW 14.5 km/h 33.8 km/h 66% 0 mm
13:29 26.7 °C 20.6 °C 1006 hPa WSW 8 km/h 30.6 km/h 69% 0 mm
13:34 27.1 °C 20.2 °C 1006 hPa West 8 km/h 25.7 km/h 66% 0 mm
13:39 26.9 °C 19.6 °C 1006 hPa West 8 km/h 37 km/h 64% 0 mm
13:44 27 °C 19.8 °C 1006 hPa WSW 12.9 km/h 37 km/h 65% 0 mm
13:49 27 °C 19.6 °C 1006.3 hPa WSW 12.9 km/h 29 km/h 64% 0 mm
13:59 26.8 °C 19.4 °C 1006 hPa WSW 16.1 km/h 35.4 km/h 64% 0 mm
14:04 26.8 °C 19.4 °C 1006 hPa WSW 14.5 km/h 32.2 km/h 64% 0 mm
14:09 26.9 °C 19.2 °C 1006 hPa WSW 14.5 km/h 35.4 km/h 63% 0 mm
14:14 26.7 °C 19.1 °C 1006 hPa WSW 4.8 km/h 32.2 km/h 63% 0 mm
14:19 26.8 °C 18.4 °C 1006 hPa SW 8 km/h 32.2 km/h 60% 0 mm
14:24 26.9 °C 18.8 °C 1006 hPa WSW 9.7 km/h 29 km/h 61% 0 mm
14:29 27.2 °C 18.8 °C 1006 hPa SW 16.1 km/h 35.4 km/h 60% 0 mm
14:34 27.1 °C 18.9 °C 1006 hPa WSW 8 km/h 29 km/h 61% 0 mm
14:39 27.2 °C 19.5 °C 1006 hPa SW 14.5 km/h 32.2 km/h 63% 0 mm
14:44 27.3 °C 19.6 °C 1006 hPa WSW 12.9 km/h 32.2 km/h 63% 0 mm
14:49 27.2 °C 19.8 °C 1006 hPa WSW 11.3 km/h 41.8 km/h 64% 0 mm
14:54 26.8 °C 19.7 °C 1006 hPa WSW 14.5 km/h 41.8 km/h 65% 0 mm
14:59 26.7 °C 19.3 °C 1006 hPa WSW 27.4 km/h 32.2 km/h 64% 0 mm
15:04 26.5 °C 19.4 °C 1006 hPa WNW 22.5 km/h 35.4 km/h 65% 0 mm
15:09 26.4 °C 19.3 °C 1006 hPa West 14.5 km/h 35.4 km/h 65% 0 mm
15:14 26.7 °C 19.3 °C 1006 hPa WSW 16.1 km/h 35.4 km/h 64% 0 mm
15:19 26.6 °C 19.2 °C 1006 hPa WSW 16.1 km/h 32.2 km/h 64% 0 mm
15:24 26.3 °C 19.4 °C 1006 hPa WSW 16.1 km/h 32.2 km/h 66% 0 mm
15:29 26.3 °C 19.4 °C 1006 hPa WSW 8 km/h 32.2 km/h 66% 0 mm
15:34 26.5 °C 19.4 °C 1006 hPa SSW 8 km/h 25.7 km/h 65% 0 mm
15:39 26.3 °C 19 °C 1006 hPa WSW 17.7 km/h 32.2 km/h 64% 0 mm
15:44 26.4 °C 18.8 °C 1005.6 hPa WSW 17.7 km/h 35.4 km/h 63% 0 mm
15:49 26.4 °C 18.8 °C 1005.6 hPa WSW 17.7 km/h 38.6 km/h 63% 0 mm
15:54 26.7 °C 19.1 °C 1005.6 hPa WSW 14.5 km/h 30.6 km/h 63% 0 mm
15:59 26.6 °C 19 °C 1005.6 hPa WSW 19.3 km/h 30.6 km/h 63% 0 mm
16:04 26.7 °C 19.1 °C 1005.6 hPa WSW 8 km/h 25.7 km/h 63% 0 mm
16:09 26.8 °C 19.4 °C 1005.6 hPa West 11.3 km/h 20.9 km/h 64% 0 mm
16:14 26.6 °C 18.9 °C 1006 hPa WSW 14.5 km/h 32.2 km/h 63% 0 mm
16:19 26.4 °C 19.3 °C 1006 hPa WSW 16.1 km/h 33.8 km/h 65% 0 mm
16:24 26.1 °C 19 °C 1006 hPa WSW 16.1 km/h 35.4 km/h 65% 0 mm
16:29 25.9 °C 19.1 °C 1006 hPa WSW 16.1 km/h 35.4 km/h 66% 0 mm
16:34 25.5 °C 19.2 °C 1006 hPa WSW 16.1 km/h 35.4 km/h 68% 0 mm
16:39 25.3 °C 18.9 °C 1005.6 hPa WSW 12.9 km/h 25.7 km/h 68% 0 mm
16:44 25.2 °C 18.8 °C 1006 hPa WSW 14.5 km/h 27.4 km/h 68% 0 mm
16:49 25.3 °C 19.2 °C 1006 hPa West 12.9 km/h 24.1 km/h 69% 0 mm
16:54 25.2 °C 19.1 °C 1006 hPa West 20.9 km/h 25.7 km/h 69% 0 mm
16:59 24.9 °C 19.1 °C 1006 hPa West 14.5 km/h 25.7 km/h 70% 0 mm
17:04 24.8 °C 19.4 °C 1006 hPa WSW 8 km/h 32.2 km/h 72% 0 mm
17:09 24.6 °C 19.2 °C 1006 hPa SSW 14.5 km/h 32.2 km/h 72% 0 mm
17:14 24.5 °C 18.7 °C 1006 hPa WSW 14.5 km/h 32.2 km/h 70% 0 mm
17:19 24.5 °C 18.9 °C 1006 hPa WSW 12.9 km/h 25.7 km/h 71% 0 mm
17:24 24.4 °C 19.1 °C 1006.3 hPa WSW 14.5 km/h 29 km/h 72% 0 mm
17:29 24.4 °C 19.3 °C 1006 hPa WSW 12.9 km/h 29 km/h 73% 0 mm
17:34 24.3 °C 19.2 °C 1006.3 hPa SW 8 km/h 29 km/h 73% 0 mm
17:39 24.2 °C 19.3 °C 1006.7 hPa SW 19.3 km/h 24.1 km/h 74% 0 mm
17:44 24.2 °C 19.4 °C 1006.3 hPa WSW 12.9 km/h 25.7 km/h 75% 0 mm
17:49 24.2 °C 19.4 °C 1006.3 hPa SSW 11.3 km/h 35.4 km/h 75% 0 mm
17:54 24.1 °C 19.2 °C 1006.3 hPa SW 14.5 km/h 29 km/h 74% 0 mm
17:59 24.1 °C 19.3 °C 1006.3 hPa SW 6.4 km/h 25.7 km/h 75% 0 mm
18:04 24 °C 19.1 °C 1006.3 hPa WSW 16.1 km/h 35.4 km/h 74% 0 mm
18:09 23.9 °C 19.2 °C 1006.3 hPa WSW 17.7 km/h 25.7 km/h 75% 0 mm
18:14 23.9 °C 19.2 °C 1006.3 hPa WSW 12.9 km/h 25.7 km/h 75% 0 mm
18:19 23.8 °C 19.1 °C 1006.3 hPa WSW 12.9 km/h 27.4 km/h 75% 0 mm
18:24 23.8 °C 19.3 °C 1006.3 hPa WSW 12.9 km/h 27.4 km/h 76% 0 mm
18:29 23.8 °C 19.1 °C 1006.3 hPa SW 11.3 km/h 30.6 km/h 75% 0 mm
18:34 23.8 °C 18.9 °C 1006.3 hPa WNW 6.4 km/h 19.3 km/h 74% 0 mm
18:39 23.8 °C 18.7 °C 1006.3 hPa WSW 4.8 km/h 25.7 km/h 73% 0 mm
18:44 23.8 °C 18.7 °C 1006.7 hPa WSW 4.8 km/h 22.5 km/h 73% 0 mm
18:49 23.8 °C 19.1 °C 1006.7 hPa WSW 6.4 km/h 14.5 km/h 75% 0 mm
18:54 23.8 °C 19.3 °C 1006.7 hPa WSW 12.9 km/h 17.7 km/h 76% 0 mm
18:59 23.7 °C 19.2 °C 1006.7 hPa WSW 11.3 km/h 20.9 km/h 76% 0 mm
19:04 23.7 °C 19.4 °C 1006.7 hPa SW 6.4 km/h 12.9 km/h 77% 0 mm
19:09 23.6 °C 19.3 °C 1007 hPa WSW 12.9 km/h 20.9 km/h 77% 0 mm
19:14 23.6 °C 19.5 °C 1007 hPa WSW 9.7 km/h 20.9 km/h 78% 0 mm
19:19 23.5 °C 19.4 °C 1007 hPa WSW 9.7 km/h 19.3 km/h 78% 0 mm
19:24 23.5 °C 19.4 °C 1007 hPa SW 9.7 km/h 25.7 km/h 78% 0 mm
19:29 23.4 °C 19.4 °C 1007 hPa West 20.9 km/h 22.5 km/h 78% 0 mm
19:34 23.4 °C 19.6 °C 1007 hPa SW 9.7 km/h 25.7 km/h 79% 0 mm
19:39 23.4 °C 19.6 °C 1007 hPa SW 6.4 km/h 24.1 km/h 79% 0 mm
19:44 23.4 °C 19.6 °C 1007 hPa WSW 9.7 km/h 24.1 km/h 79% 0 mm
19:49 23.3 °C 19.5 °C 1007 hPa SW 11.3 km/h 24.1 km/h 79% 0 mm
19:54 23.3 °C 19.5 °C 1007 hPa SW 11.3 km/h 24.1 km/h 79% 0 mm
19:59 23.3 °C 19.6 °C 1007 hPa WSW 6.4 km/h 17.7 km/h 80% 0 mm
20:04 23.3 °C 19.6 °C 1007 hPa WSW 1.6 km/h 22.5 km/h 80% 0 mm
20:09 23.3 °C 19.6 °C 1007 hPa SSW 11.3 km/h 19.3 km/h 80% 0 mm
20:14 23.2 °C 19.6 °C 1007 hPa WSW 9.7 km/h 27.4 km/h 80% 0 mm
20:19 23.2 °C 19.5 °C 1007 hPa WSW 9.7 km/h 27.4 km/h 80% 0 mm
20:24 23.2 °C 19.5 °C 1007 hPa WSW 12.9 km/h 24.1 km/h 80% 0 mm
20:29 23.2 °C 19.3 °C 1007.3 hPa WSW 12.9 km/h 27.4 km/h 79% 0 mm
20:34 23.1 °C 19.3 °C 1007 hPa SW 8 km/h 19.3 km/h 79% 0 mm
20:39 23.1 °C 19.4 °C 1007.3 hPa SW 12.9 km/h 20.9 km/h 80% 0 mm
20:44 23.1 °C 19.4 °C 1007.3 hPa WSW 17.7 km/h 22.5 km/h 80% 0 mm
20:49 23.1 °C 19.4 °C 1007.3 hPa WSW 11.3 km/h 22.5 km/h 80% 0 mm
20:54 23.1 °C 19.4 °C 1007.3 hPa WSW 11.3 km/h 22.5 km/h 80% 0 mm
20:59 23.1 °C 19.3 °C 1007.3 hPa WSW 12.9 km/h 22.5 km/h 79% 0 mm
21:04 23.1 °C 19.4 °C 1007.3 hPa WSW 9.7 km/h 22.5 km/h 80% 0 mm
21:09 23.1 °C 19.3 °C 1007.3 hPa West 12.9 km/h 20.9 km/h 79% 0 mm
21:14 23.1 °C 19 °C 1007.3 hPa WSW 8 km/h 19.3 km/h 78% 0 mm
21:19 23.1 °C 19 °C 1007.7 hPa WSW 8 km/h 22.5 km/h 78% 0 mm
21:24 23.2 °C 19.1 °C 1007.7 hPa WSW 9.7 km/h 22.5 km/h 78% 0 mm
21:29 23.1 °C 19.1 °C 1007.7 hPa SW 3.2 km/h 14.5 km/h 78% 0 mm
21:34 23.2 °C 19.1 °C 1007.7 hPa WSW 4.8 km/h 12.9 km/h 78% 0 mm
21:39 23.2 °C 18.9 °C 1007.7 hPa SSW 8 km/h 22.5 km/h 77% 0 mm
21:44 23.1 °C 19.1 °C 1007.7 hPa WNW 4.8 km/h 9.7 km/h 78% 0 mm
21:49 23.1 °C 18.8 °C 1007.7 hPa SW 4.8 km/h 19.3 km/h 77% 0 mm
21:54 23.1 °C 18.8 °C 1007.7 hPa West 8 km/h 19.3 km/h 77% 0 mm
21:59 23 °C 18.6 °C 1008 hPa West 8 km/h 20.9 km/h 76% 0 mm
22:04 22.9 °C 18.3 °C 1008 hPa West 9.7 km/h 20.9 km/h 75% 0 mm
22:09 22.8 °C 17.7 °C 1008 hPa West 8 km/h 17.7 km/h 73% 0 mm
22:14 22.8 °C 17.4 °C 1008 hPa West 8 km/h 19.3 km/h 72% 0 mm
22:19 22.8 °C 17.2 °C 1008 hPa SW 4.8 km/h 17.7 km/h 71% 0 mm
22:24 22.8 °C 17.2 °C 1008 hPa SW 4.8 km/h 16.1 km/h 71% 0 mm
22:29 22.8 °C 17 °C 1008 hPa WSW 6.4 km/h 16.1 km/h 70% 0 mm
22:34 22.8 °C 17 °C 1008 hPa WNW 8 km/h 12.9 km/h 70% 0 mm
22:39 22.8 °C 17 °C 1008.4 hPa West 6.4 km/h 9.7 km/h 70% 0 mm
22:44 22.7 °C 16.9 °C 1008 hPa West 4.8 km/h 8 km/h 70% 0 mm
22:49 22.7 °C 16.9 °C 1008 hPa West 6.4 km/h 12.9 km/h 70% 0 mm
22:54 22.7 °C 16.9 °C 1008 hPa West 6.4 km/h 12.9 km/h 70% 0 mm
22:59 22.7 °C 16.9 °C 1008 hPa West 8 km/h 20.9 km/h 70% 0 mm
23:04 22.6 °C 16.8 °C 1008.4 hPa West 8 km/h 20.9 km/h 70% 0 mm
23:09 22.6 °C 16.8 °C 1008.4 hPa West 6.4 km/h 17.7 km/h 70% 0 mm
23:19 22.6 °C 17.1 °C 1008.4 hPa WNW 11.3 km/h 17.7 km/h 71% 0 mm
23:24 22.5 °C 17 °C 1008.7 hPa West 6.4 km/h 14.5 km/h 71% 0 mm
23:29 22.4 °C 16.9 °C 1008.7 hPa WSW 6.4 km/h 14.5 km/h 71% 0 mm
23:34 22.4 °C 16.9 °C 1008.7 hPa WSW 6.4 km/h 14.5 km/h 71% 0 mm
23:39 22.4 °C 16.9 °C 1008.7 hPa WSW 4.8 km/h 12.9 km/h 71% 0 mm
23:44 22.4 °C 16.9 °C 1008.7 hPa SSW 8 km/h 12.9 km/h 71% 0 mm
23:49 22.3 °C 16.8 °C 1008.7 hPa SW 3.2 km/h 11.3 km/h 71% 0 mm
23:54 22.3 °C 16.8 °C 1008.7 hPa WSW 9.7 km/h 16.1 km/h 71% 0 mm
23:59 22.3 °C 16.8 °C 1009 hPa SW 6.4 km/h 16.1 km/h 71% 0 mm
Buffalo, New York, USA
Compliments of Weather Underground - 2.5 mb